Погода в Самойловке

Украина / Херсонская область     47°07′47″N   34°26′47″E
темп.,
°C
ветер,
м/с
пор.,
м/с
влажн.,
%
обл.,
%
осадки,
мм/ч
давл.,
гПа
погр.,
м
8 мая, сб
сб800:00+15ююв61359100 0.0 1013364
03:00+13ююв51071100 0.0 1012257
06:00+13ююв51078100 0.0 1010271
09:00+15ю5870100 0.1 1010397
12:00+18зюз81164100 0.0 10101235
15:00+14зсз6983100 0.4 1011602
18:00+13ссз81176100 1.1 1012817
21:00+11ссз71169100 1.1 1015550
9 мая, вс
вс900:00+9ссз81270100 0.0 1016736
03:00+7ссз71374100 0.0 1018817
06:00+7ссз61282100 0.0 1020672
09:00+10ссз810595 0.0 10221110
12:00+13ссз89425 0.0 10231943
15:00+15ссз8936100 0.0 10232715
18:00+14с78465 0.0 10242297
21:00+10с510565 0.0 1027244
10 мая, пн
пн1000:00+8с37682 0.0 1028109
03:00+7ссз35745 0.0 102866
06:00+6с36750 0.0 1029122
09:00+12с58470 0.0 10291612
12:00+14с67375 0.0 10282081
15:00+16ссз67365 0.0 10262386
18:00+15с574314 0.0 10252380
21:00+11с4105431 0.0 1025217
11 мая, вт
вт1100:00+10ссз41063100 0.0 1024237
03:00+9ссз5117018 0.0 1022282
06:00+10ссз7136688 0.0 1021539
09:00+10с7969100 0.0 1020671
12:00+12с677084 0.0 1019828
15:00+12с5876100 0.1 1018823
18:00+11ссв598155 0.2 1018741
21:00+9всв48795 0.3 1018241
12 мая, ср
ср1200:00+6с368641 0.0 1017102
03:00+8с3683100 0.0 1015253
06:00+8ссв3684100 0.1 1015336
09:00+8в3486100 0.5 1014371
12:00+12юв336696 0.5 10141044
15:00+15ююв3450100 0.9 10141812
18:00+14ююв3556100 0.1 10141027
21:00+9вюв369136 0.2 1015110